TimeCDT,TemperatureF,Dew PointF,Humidity,Sea Level PressureIn,VisibilityMPH,Wind Direction,Wind SpeedMPH,Gust SpeedMPH,PrecipitationIn,Events,Conditions,WindDirDegrees,DateUTC
12:53 AM,80.1,55.0,42,29.74,10.0,SSW,16.1,-,N/A,,Clear,210,2013-07-22 05:53:00
1:53 AM,78.1,55.9,46,29.74,10.0,SSW,15.0,-,N/A,,Clear,210,2013-07-22 06:53:00
2:53 AM,77.0,57.0,50,29.73,10.0,SSW,15.0,-,N/A,,Clear,210,2013-07-22 07:53:00
3:53 AM,73.9,57.0,55,29.73,10.0,SSW,15.0,-,N/A,,Clear,210,2013-07-22 08:53:00
4:53 AM,73.0,57.9,59,29.72,10.0,SSW,12.7,-,N/A,,Clear,200,2013-07-22 09:53:00
5:53 AM,72.0,57.9,61,29.72,10.0,SSW,12.7,-,N/A,,Clear,200,2013-07-22 10:53:00
6:53 AM,72.0,59.0,64,29.72,10.0,SSW,12.7,-,N/A,,Clear,210,2013-07-22 11:53:00
7:53 AM,75.9,60.1,58,29.74,10.0,SSW,5.8,-,N/A,,Clear,210,2013-07-22 12:53:00
8:53 AM,82.0,60.1,47,29.75,10.0,SSW,12.7,-,N/A,,Clear,200,2013-07-22 13:53:00
9:53 AM,88.0,59.0,37,29.74,10.0,SW,17.3,23.0,N/A,,Clear,220,2013-07-22 14:53:00
10:53 AM,93.0,57.9,31,29.73,10.0,SW,17.3,24.2,N/A,,Clear,220,2013-07-22 15:53:00
11:53 AM,96.1,57.0,27,29.75,10.0,SW,10.4,-,N/A,,Clear,220,2013-07-22 16:53:00
12:53 PM,98.1,57.0,25,29.73,10.0,SSW,10.4,20.7,N/A,,Clear,200,2013-07-22 17:53:00
1:53 PM,98.1,54.0,23,29.72,10.0,SSW,16.1,25.3,N/A,,Clear,210,2013-07-22 18:53:00
2:53 PM,100.0,54.0,21,29.70,10.0,South,15.0,24.2,N/A,,Clear,190,2013-07-22 19:53:00
3:53 PM,100.9,52.0,19,29.70,10.0,SW,13.8,23.0,N/A,,Clear,220,2013-07-22 20:53:00
4:53 PM,100.9,54.0,21,29.69,10.0,South,16.1,25.3,N/A,,Clear,190,2013-07-22 21:53:00
5:53 PM,100.9,53.1,20,29.67,10.0,South,16.1,24.2,N/A,,Clear,190,2013-07-22 22:53:00
6:53 PM,99.0,52.0,21,29.66,10.0,South,16.1,-,N/A,,Clear,190,2013-07-22 23:53:00
7:53 PM,97.0,52.0,22,29.68,10.0,South,15.0,-,N/A,,Clear,190,2013-07-23 00:53:00
8:53 PM,89.1,54.0,30,29.71,10.0,SSE,4.6,-,N/A,,Clear,150,2013-07-23 01:53:00
9:53 PM,82.9,55.0,38,29.73,10.0,SSE,10.4,-,N/A,,Clear,160,2013-07-23 02:53:00
10:53 PM,82.9,61.0,47,29.74,10.0,South,12.7,-,N/A,,Clear,170,2013-07-23 03:53:00
11:53 PM,81.0,63.0,54,29.76,10.0,South,12.7,-,N/A,,Clear,170,2013-07-23 04:53:00